Wind_Speed
105 105 104 101 97 94 93 91 89 89 89 88 87 87 86 84 81 80 81 79 75 74 71 68 67 65 65 67 67 63 59 57 57 55 54 55 56 54 53 53 53 54 54 52 50 48 45 43 43 43 42 41 42 42 41 40 40 39 39 39 39 38 38 40 42 43 44 44 43 45 48 49 49 50 50 49 49 48 47 46 45 45 44 44 43 41
107 107 106 103 101 99 98 96 94 94 93 91 90 89 89 87 84 83 83 82 77 74 73 72 69 67 66 67 68 65 62 60 59 59 58 58 59 57 54 54 55 55 54 54 54 53 50 47 46 45 45 44 44 44 43 43 43 42 42 42 42 41 40 40 41 41 41 41 40 42 45 46 48 48 48 48 47 45 44 43 42 41 40 40 40 40
108 108 108 106 105 103 100 98 96 95 95 93 92 93 93 90 87 87 86 83 79 76 76 75 72 69 67 67 68 68 65 63 62 61 62 62 60 59 57 56 56 56 56 57 57 56 54 52 49 48 48 47 47 46 46 46 46 45 45 45 45 45 44 44 44 43 42 42 41 41 42 42 43 44 44 43 43 41 40 39 39 39 40 41 41 41
109 108 109 108 107 104 101 99 98 98 97 95 94 96 95 92 90 89 87 85 82 79 78 77 75 71 68 67 69 71 69 66 65 64 65 64 62 60 60 59 58 57 58 59 59 58 57 55 53 52 51 50 50 50 50 49 48 48 47 47 48 47 47 47 47 46 45 44 43 43 42 42 42 42 42 42 41 40 39 40 41 41 41 42 42 42
110 109 110 110 108 105 102 101 101 101 100 98 97 99 98 94 92 91 91 90 86 83 80 79 78 74 71 69 69 73 72 68 66 66 66 66 65 63 62 62 62 61 61 61 61 60 59 57 56 55 55 54 53 53 53 52 51 50 50 49 49 49 49 50 49 48 47 47 47 46 45 45 45 45 44 44 43 42 42 44 44 44 44 44 44 45
113 111 110 110 109 107 105 104 104 104 103 101 100 101 99 97 95 95 96 94 87 84 83 83 80 75 74 74 71 73 75 71 68 67 67 68 67 65 64 65 66 65 64 64 63 63 61 59 58 58 58 58 57 57 56 54 54 53 52 52 51 51 52 52 52 51 50 49 50 49 48 48 48 49 48 48 47 46 46 47 47 48 47 47 48 48
117 115 113 112 111 110 108 107 107 106 106 105 103 103 102 100 98 98 99 96 89 87 86 86 83 78 77 77 74 74 76 75 71 68 68 69 69 69 68 68 69 69 68 67 66 65 63 62 61 61 61 60 60 60 60 59 58 57 56 55 55 55 54 55 54 54 53 52 52 52 52 51 52 52 52 52 51 50 50 50 51 51 50 50 50 51
118 117 115 114 114 113 112 110 109 108 108 107 106 105 104 102 100 100 101 98 92 89 90 88 85 82 79 77 77 77 77 77 74 72 70 70 71 73 72 71 71 72 71 71 70 67 66 66 64 63 63 62 62 62 63 62 62 61 60 59 59 59 59 58 57 56 56 54 54 54 55 55 55 55 55 55 54 54 53 53 53 53 53 53 53 53
119 118 117 116 116 116 114 112 110 110 110 110 108 106 105 103 102 102 103 100 95 93 93 90 88 86 80 77 79 80 78 77 76 76 74 72 74 75 74 74 75 75 74 74 73 71 70 70 67 65 65 64 64 64 65 65 64 64 64 64 64 64 63 61 60 59 59 58 57 56 57 58 58 58 58 58 58 57 56 56 56 56 56 55 55 55
122 121 120 120 120 119 117 116 114 113 113 113 112 109 107 106 104 104 105 103 100 99 95 90 89 89 82 79 82 82 79 77 78 79 77 75 75 76 77 78 78 78 77 76 75 74 74 74 71 68 66 66 66 66 67 67 66 65 66 67 67 67 66 64 63 62 61 61 60 59 59 60 61 61 60 60 60 60 59 59 59 58 58 58 58 59
127 125 125 124 123 122 120 119 119 118 117 116 115 112 111 109 107 107 107 106 106 103 96 90 89 92 87 81 83 84 80 79 79 80 81 78 77 78 80 83 83 81 80 78 77 77 76 76 75 73 70 69 68 68 68 68 68 68 67 68 68 68 68 66 65 64 64 63 63 62 62 62 63 63 62 63 63 63 62 62 62 61 61 61 62 62
131 128 127 126 125 124 123 122 121 120 119 118 117 115 114 113 111 110 109 109 110 106 96 90 91 96 92 82 83 85 81 81 82 82 84 83 80 81 83 86 87 85 83 82 81 80 78 77 77 77 75 73 70 70 70 70 70 70 70 69 69 69 68 67 67 66 66 66 65 65 65 64 64 64 64 64 65 66 65 65 65 64 64 65 65 65
132 129 128 127 126 126 125 124 123 121 120 119 118 117 116 115 113 112 111 111 112 107 99 94 94 99 96 84 83 85 84 85 85 84 86 86 84 85 86 88 90 89 87 86 84 82 81 80 79 79 78 76 74 72 72 72 72 71 71 71 70 70 69 68 68 67 67 67 67 67 66 66 66 66 66 66 67 68 67 67 68 68 68 68 68 69
134 131 130 129 128 127 126 125 123 121 120 120 120 119 119 117 115 115 114 113 114 110 104 99 98 103 99 87 84 86 85 87 87 86 87 87 88 88 88 90 91 92 90 88 86 84 84 83 81 80 79 78 77 75 75 74 74 73 73 72 71 71 71 70 70 69 69 69 69 69 68 68 68 68 68 69 69 69 70 69 70 70 70 71 72 73
137 134 132 131 130 127 125 124 122 121 122 123 124 124 123 122 119 118 117 117 117 114 109 104 103 105 101 90 86 86 86 88 89 89 90 89 91 91 91 92 93 94 93 90 88 87 86 85 84 83 81 80 79 78 77 77 76 76 75 74 73 73 73 73 73 72 71 71 71 71 71 71 70 70 70 71 71 72 72 72 72 72 73 74 75 76
139 137 134 132 131 129 127 126 125 125 125 127 129 128 127 125 123 122 121 120 120 118 113 108 106 107 102 92 89 88 88 89 90 91 92 92 93 94 93 94 95 96 95 93 92 91 89 88 87 86 84 82 81 79 78 78 78 78 78 77 76 76 76 75 74 74 73 73 73 73 73 73 72 72 72 72 73 73 74 74 74 75 76 77 77 78
139 137 134 132 132 131 130 130 130 129 129 131 133 132 130 128 127 127 125 123 123 122 118 112 109 109 104 96 92 91 90 90 91 92 94 94 94 95 95 96 98 99 98 97 96 94 92 91 90 89 87 85 83 82 80 79 79 79 80 80 79 79 78 78 77 76 75 75 74 74 75 75 75 75 75 75 76 76 76 76 77 78 79 79 80 80
142 140 137 135 134 134 134 134 134 133 134 135 136 135 133 131 131 131 129 127 126 124 121 116 112 110 107 99 95 94 93 91 92 94 96 96 96 96 97 99 100 101 101 101 100 98 96 94 93 92 91 89 87 85 83 82 81 81 81 81 81 81 81 81 80 79 78 77 77 77 77 77 77 77 78 79 79 80 80 80 81 82 82 82 82 82
144 143 141 139 137 138 138 139 138 137 137 137 137 136 136 134 132 132 132 130 128 126 123 120 116 113 109 102 98 97 97 96 96 98 98 99 99 99 99 100 101 103 104 103 103 101 99 97 96 95 94 93 91 89 87 85 84 83 82 82 82 82 82 83 82 82 81 80 79 79 80 80 81 81 82 82 83 84 84 84 85 85 84 84 84 84
144 145 144 142 141 141 141 142 140 139 139 138 138 137 136 136 134 134 135 134 132 129 125 123 121 117 111 105 102 102 101 100 101 101 101 102 103 103 102 102 104 106 107 106 104 103 101 100 98 97 97 96 95 93 91 89 88 87 85 85 84 84 84 84 84 84 83 83 82 82 83 83 84 85 85 86 87 87 88 88 88 87 87 86 86 86
146 145 145 145 144 144 143 142 141 140 140 139 138 138 137 136 135 136 137 137 136 133 129 127 125 120 113 109 108 105 104 104 104 104 104 106 106 106 105 105 107 110 111 110 108 106 104 103 101 100 100 99 98 96 94 93 92 91 89 88 87 86 86 86 86 85 85 85 85 85 86 86 87 88 88 89 90 90 90 91 90 89 89 88 88 88
147 146 146 146 146 145 144 143 143 143 143 143 142 141 140 139 139 139 138 138 137 135 132 130 128 123 118 115 113 110 108 108 108 108 109 109 108 107 108 109 110 111 112 113 111 109 107 105 104 104 104 103 102 100 98 96 95 93 93 92 91 90 89 88 88 88 87 87 87 87 88 89 90 90 91 91 92 92 92 92 92 91 90 90 90 90
147 147 147 147 147 146 146 147 147 147 147 146 145 144 143 141 139 139 138 137 137 137 135 134 131 126 121 120 118 115 113 113 112 112 112 111 110 110 111 112 112 112 113 114 113 112 111 110 108 108 107 106 105 104 102 100 99 97 96 95 94 93 92 91 91 90 90 90 90 90 90 91 91 92 93 93 94 94 94 94 94 93 92 92 92 92
146 148 148 149 149 148 148 149 150 150 149 148 146 145 143 141 140 139 139 139 139 138 138 137 134 128 125 126 123 120 118 118 117 116 114 113 113 114 115 114 114 113 114 115 115 115 114 114 113 113 112 110 108 108 107 105 103 101 100 98 97 96 95 94 93 93 93 92 92 92 92 93 93 94 94 95 95 96 96 96 95 95 94 94 94 94
145 147 148 149 150 151 152 152 152 151 150 149 147 146 145 143 142 141 141 141 140 140 138 138 136 132 129 130 128 125 124 124 122 120 118 116 117 118 118 117 116 116 115 116 117 118 118 117 117 117 116 115 113 112 111 109 107 106 104 102 101 100 99 98 97 96 96 96 96 96 96 96 96 96 97 97 97 98 98 98 98 97 97 97 97 97
141 144 146 147 148 151 152 152 152 151 150 149 148 148 147 146 145 144 144 143 142 141 140 140 139 135 132 131 130 130 130 130 128 125 122 120 119 120 120 120 119 119 118 118 119 121 122 121 120 120 120 119 117 116 115 113 111 110 108 106 105 104 103 102 101 101 100 100 100 99 100 100 100 100 100 100 100 100 100 100 100 100 100 100 100 101
137 140 142 144 146 148 150 151 152 152 152 152 151 150 149 149 148 147 147 145 144 144 143 142 141 138 134 131 131 131 134 135 134 131 127 124 122 122 123 123 123 122 122 122 122 124 125 126 124 123 122 121 120 119 118 117 115 114 112 110 109 107 106 106 106 105 104 104 103 103 103 103 103 104 103 103 103 103 103 103 103 103 103 103 103 103
132 135 137 139 142 145 148 150 152 152 153 153 153 152 151 151 151 150 149 147 147 146 145 144 143 141 136 133 131 132 134 137 138 136 132 129 127 126 126 127 126 126 125 126 126 126 127 127 127 126 124 123 122 122 121 120 119 118 116 115 113 112 111 110 109 109 108 107 107 107 107 107 107 107 107 106 106 106 106 106 106 106 106 106 106 106
126 128 131 133 136 140 144 148 150 150 151 152 153 152 152 152 152 152 151 149 149 149 147 146 144 143 140 136 133 133 134 136 138 138 136 134 134 133 131 130 130 129 129 129 130 129 128 127 128 128 127 126 125 125 124 123 122 121 120 119 118 117 115 114 113 112 112 111 111 110 110 110 110 110 110 110 109 109 109 109 109 109 109 109 110 110
122 123 126 129 132 135 138 142 145 146 148 150 152 153 153 153 153 153 152 150 150 150 149 148 146 145 143 140 137 136 136 137 138 137 136 136 138 139 138 136 135 133 133 132 132 131 130 128 128 128 129 129 129 128 127 125 125 125 125 123 122 121 120 119 118 117 116 115 115 114 114 114 114 114 114 114 113 113 112 112 112 112 112 113 113 113
120 122 124 127 130 133 135 139 141 143 145 148 150 151 152 153 153 152 151 150 149 149 149 149 148 147 145 142 140 139 138 139 139 138 136 136 138 141 143 142 141 139 138 137 134 132 131 131 130 130 131 132 132 131 130 129 128 128 128 128 126 125 124 123 122 122 121 120 119 119 118 118 118 118 118 118 117 117 116 116 116 116 116 116 116 116
118 120 123 126 128 130 133 137 139 141 143 145 146 147 148 149 150 149 148 148 148 148 149 150 149 147 146 145 144 141 139 138 138 138 138 138 139 141 143 144 144 144 143 141 138 136 135 135 134 133 132 132 133 133 133 132 132 131 131 131 130 129 128 128 127 126 125 124 124 123 122 122 121 121 121 121 121 120 120 120 120 120 120 120 120 120
116 118 120 123 125 127 129 132 135 138 141 142 142 141 141 142 144 145 146 146 147 148 148 148 148 147 146 146 146 143 140 138 138 139 141 143 143 143 144 145 146 146 145 143 142 142 142 140 138 136 134 134 134 134 135 135 134 134 133 133 133 133 133 132 132 131 130 129 128 127 127 126 125 125 125 125 124 124 123 123 123 124 124 124 124 124
114 115 117 119 121 122 125 128 132 136 137 136 135 134 134 135 137 139 141 142 143 144 145 146 146 146 146 146 146 145 142 141 140 141 143 146 148 147 146 146 146 146 146 145 145 145 146 145 143 142 140 138 137 136 136 136 135 135 135 136 136 136 136 136 135 135 134 133 133 132 131 130 129 128 128 128 128 127 127 126 127 127 127 127 127 127
111 113 114 115 116 118 120 124 128 130 129 127 127 127 129 130 132 134 136 137 138 139 142 144 145 146 147 147 146 146 145 144 144 144 146 148 150 150 149 147 146 146 146 146 146 146 147 147 146 146 146 145 143 140 138 136 135 135 136 137 138 138 139 139 138 137 137 137 136 136 135 134 132 132 131 131 131 131 131 130 130 131 130 130 130 130
107 109 111 112 113 114 116 118 121 121 119 119 119 121 123 126 129 132 133 134 135 138 140 142 143 144 145 146 146 147 147 147 147 146 147 148 150 151 151 149 147 147 146 147 147 147 148 148 148 148 148 149 148 147 144 141 138 138 138 139 139 139 140 140 140 139 139 138 138 138 138 137 136 135 134 134 134 134 134 134 134 134 133 132 132 131
105 106 108 109 110 111 112 114 116 116 114 112 112 114 117 121 125 129 132 134 135 137 138 139 140 140 141 143 146 147 149 149 148 146 146 147 149 151 151 151 150 149 149 148 148 148 149 149 150 150 150 150 151 151 149 147 145 144 143 143 143 142 141 141 141 140 140 140 139 139 139 139 138 138 137 136 135 135 135 135 135 135 134 133 133 132
103 105 107 108 108 110 111 113 113 112 109 107 108 110 113 117 122 126 130 131 132 133 135 137 139 140 141 142 144 145 147 148 147 146 145 145 146 148 150 151 152 152 152 151 151 151 150 150 150 151 152 152 153 153 152 150 148 147 148 148 148 147 145 144 143 143 143 143 143 143 142 142 141 141 140 139 138 137 137 137 137 137 136 135 135 134
103 104 106 107 108 109 110 111 111 108 106 105 106 108 110 114 117 121 125 125 126 128 132 136 139 141 141 142 142 142 143 144 144 143 143 143 144 144 146 149 151 152 153 153 153 152 152 152 152 152 153 154 155 155 154 151 149 149 150 151 151 150 149 147 146 145 145 146 146 146 147 146 146 145 145 144 143 142 140 140 139 139 139 139 139 139
103 104 106 107 107 108 109 109 108 105 103 104 105 105 108 111 113 115 116 115 116 120 126 132 135 137 138 138 139 140 141 141 141 141 141 141 141 142 144 146 149 151 152 153 152 152 153 153 153 153 154 155 156 156 155 153 152 151 151 152 153 153 152 150 148 147 146 146 147 147 148 148 149 149 149 149 149 148 147 146 145 144 144 144 144 144
103 104 105 105 106 107 108 108 106 102 101 103 104 104 104 105 105 106 106 106 109 113 118 124 128 130 131 134 135 137 139 139 140 140 139 139 139 140 141 143 145 148 150 151 151 151 151 152 153 154 154 155 156 156 156 155 154 153 153 154 155 155 154 153 152 150 149 148 148 149 149 149 150 150 151 151 151 151 151 151 151 150 149 149 149 148
102 104 105 105 106 106 106 106 103 99 98 101 102 100 99 98 97 96 97 99 102 105 109 113 116 120 123 127 130 133 135 137 138 138 139 139 138 139 140 140 141 143 145 147 148 148 149 149 150 152 153 155 155 156 156 156 155 155 155 155 156 156 156 155 155 153 152 152 151 151 151 152 152 152 152 153 153 153 153 154 154 154 154 153 153 152
102 103 103 103 103 103 103 102 97 94 96 100 101 97 94 91 88 86 88 91 93 95 98 102 106 110 114 118 122 127 130 134 136 137 138 138 138 138 138 138 139 139 140 142 143 144 145 145 146 148 150 152 153 154 154 154 154 155 155 156 156 155 155 155 156 155 155 154 154 153 154 154 154 154 155 155 154 154 155 155 155 155 155 155 155 155
101 100 100 100 101 102 102 98 93 93 95 96 93 88 84 82 79 79 82 86 87 89 91 94 98 102 106 110 114 119 123 127 130 133 135 136 137 137 137 137 137 137 137 138 139 140 140 140 141 142 145 147 149 150 151 151 151 152 153 154 155 155 155 155 155 155 155 155 155 155 155 155 156 156 156 156 156 156 156 156 156 156 156 156 156 156
97 97 99 100 100 100 97 91 89 90 91 87 85 84 84 82 79 77 79 82 84 85 87 89 92 95 98 102 107 111 116 120 123 126 129 131 133 134 135 135 136 135 135 135 135 136 136 136 137 138 139 141 143 144 146 146 147 147 149 150 152 153 153 154 154 154 155 155 155 155 155 155 156 156 156 157 157 157 157 156 157 157 157 157 156 156
96 97 99 98 97 95 90 84 84 87 88 87 86 86 84 81 77 76 78 80 82 83 85 87 89 92 95 98 101 105 109 113 116 120 123 125 127 129 131 132 133 133 133 133 133 133 133 133 133 133 134 136 138 139 139 140 140 141 142 144 146 147 148 150 151 152 153 153 153 153 154 154 154 155 155 156 156 156 156 156 156 156 156 156 156 156
95 97 97 95 93 90 85 82 84 87 87 88 87 83 79 77 76 76 78 80 82 84 86 88 90 92 94 95 97 100 102 105 109 113 116 119 121 124 126 128 129 130 130 130 130 130 130 130 131 131 131 133 134 135 135 135 135 136 137 138 139 140 142 143 145 146 148 149 150 150 151 151 152 153 154 154 154 154 155 155 155 155 155 155 155 155
94 96 94 91 91 87 82 81 84 85 84 85 85 81 79 77 77 77 79 80 82 84 86 88 91 93 94 95 96 97 99 102 104 107 110 113 116 118 120 122 124 125 126 126 126 127 127 127 128 128 129 130 131 132 133 132 132 133 133 134 134 135 136 138 139 140 142 144 145 145 146 147 147 148 149 150 151 151 151 152 152 152 152 152 152 152
95 94 90 89 89 85 79 80 84 84 83 83 83 81 78 76 76 77 79 80 82 83 85 88 90 93 94 95 96 98 99 101 102 104 105 107 110 112 115 116 118 119 120 120 121 122 123 123 124 125 125 126 128 129 129 130 130 130 130 131 131 132 133 134 135 136 138 139 141 142 142 143 143 143 144 145 145 146 146 146 146 147 147 147 147 147
91 90 89 89 87 82 79 82 85 83 81 80 80 80 79 78 77 78 78 79 80 82 84 87 89 91 93 94 96 98 99 101 103 104 104 104 105 107 109 110 111 112 113 114 114 115 116 117 118 119 119 121 122 123 124 125 126 126 127 127 127 128 129 131 132 133 134 136 137 138 139 140 140 140 140 140 141 141 141 142 141 141 141 141 141 142
88 89 90 89 86 81 79 81 82 81 80 79 79 79 80 79 79 79 79 80 82 83 85 86 88 90 92 94 96 98 99 101 102 103 103 104 104 104 105 106 106 106 107 108 108 108 109 110 111 111 112 113 114 115 115 116 118 119 120 121 121 122 123 125 127 128 130 132 133 135 136 137 137 138 138 138 138 138 138 138 138 138 138 137 137 137
Wind_Direction
234 235 235 236 236 236 236 236 235 235 235 235 236 236 237 238 238 239 241 241 241 243 244 244 243 244 247 250 253 254 253 253 254 254 255 256 257 257 257 259 259 260 260 260 259 257 255 254 252 253 253 254 256 257 259 261 262 263 265 266 267 268 267 267 267 267 268 269 270 269 268 267 267 268 269 270 271 273 275 278 280 282 284 286 287 288
233 235 235 235 235 235 235 235 235 235 236 236 237 238 238 238 239 239 240 241 241 241 243 244 243 243 245 248 252 254 253 253 254 255 255 256 257 257 257 259 260 260 260 260 258 257 256 254 253 252 253 253 254 256 258 260 262 264 266 267 268 268 268 268 269 270 271 272 273 271 269 269 269 270 271 272 273 274 276 278 280 281 283 285 287 289
233 235 236 235 235 235 236 236 236 237 238 238 239 240 240 239 239 240 240 242 242 242 242 243 244 243 243 246 251 253 253 253 253 254 255 255 257 259 259 259 260 260 261 260 258 257 256 255 254 253 253 253 253 255 257 258 261 263 265 266 267 268 269 270 271 272 273 273 273 271 271 271 271 271 272 272 273 274 276 278 279 281 284 286 288 290
234 235 236 236 236 236 237 238 238 239 239 239 240 241 241 241 241 241 242 242 242 242 242 243 244 243 243 244 248 252 252 252 253 253 255 256 257 258 259 260 260 260 260 260 259 258 257 256 255 254 254 253 253 254 255 257 259 261 263 265 266 268 270 271 271 272 273 273 272 272 273 272 272 272 272 272 273 275 277 278 279 281 284 285 288 290
234 234 236 237 237 237 237 238 238 239 239 239 240 241 242 242 242 243 243 242 242 242 242 242 243 243 243 242 244 250 252 252 253 254 256 257 257 257 259 261 260 259 259 259 260 259 258 256 255 255 255 254 254 254 255 256 258 259 260 262 264 266 267 269 270 271 272 273 273 273 274 273 273 273 273 273 274 276 278 279 280 282 284 286 289 291
234 234 235 237 238 237 237 237 238 239 239 239 240 241 242 242 242 243 243 243 243 243 243 242 242 241 242 242 242 247 252 253 254 255 257 258 258 258 258 259 260 259 259 259 259 259 259 257 256 255 255 255 255 255 256 256 257 258 259 260 262 263 265 266 268 269 270 271 273 274 274 274 274 274 274 275 276 277 278 281 282 284 285 288 290 292
234 234 235 236 238 238 237 237 238 239 239 240 240 241 242 242 242 243 244 245 243 242 242 242 242 240 241 243 242 244 249 252 253 254 256 258 259 259 258 258 259 259 259 259 259 259 259 258 257 256 255 255 256 257 257 257 257 258 259 260 261 262 262 264 265 267 268 270 272 273 274 275 275 275 275 276 278 279 281 282 284 285 287 288 290 292
233 235 235 236 238 238 238 238 238 239 240 240 241 241 242 242 243 244 245 245 244 243 243 243 243 241 240 242 243 243 246 250 252 253 254 257 259 259 259 258 258 259 259 259 259 259 259 259 257 257 256 256 256 257 258 258 258 259 259 260 260 261 261 262 263 265 267 269 270 272 274 274 275 275 276 278 279 281 282 283 284 285 287 288 289 291
234 235 236 236 238 239 239 239 239 239 240 241 241 241 242 243 243 244 246 246 245 243 243 243 244 243 241 241 243 244 245 248 251 252 253 255 258 260 260 260 259 259 259 259 260 260 260 259 258 257 257 256 256 257 258 258 259 259 260 260 260 260 261 262 263 265 267 268 270 271 272 273 275 276 277 279 280 281 282 283 284 285 286 287 288 289
233 234 235 236 237 238 239 239 239 239 240 241 241 241 241 242 243 244 245 246 245 243 243 243 244 245 242 240 243 244 244 246 249 251 252 253 256 260 261 260 259 259 259 259 259 260 260 260 259 257 257 257 256 256 257 258 259 259 260 261 261 262 263 263 264 266 267 268 269 270 271 272 274 275 277 278 279 280 281 282 283 284 285 286 287 288
232 233 234 235 236 237 238 239 239 239 240 241 241 241 241 241 242 243 244 245 245 245 244 243 244 246 243 239 241 244 244 245 247 250 252 252 254 257 259 260 259 258 258 259 259 259 259 260 260 259 257 256 256 256 257 258 259 260 260 261 262 263 264 265 265 266 267 268 269 269 270 271 272 274 275 277 278 280 281 281 282 283 284 285 285 286
231 232 233 235 236 237 238 238 239 240 241 242 242 242 243 243 243 243 244 245 247 247 245 243 244 246 245 240 241 244 244 245 246 249 251 252 252 253 256 258 259 258 257 258 258 259 259 259 260 260 259 257 257 257 257 258 258 259 260 261 263 264 265 266 267 267 267 267 268 268 268 269 270 272 273 275 277 279 280 281 282 283 283 284 285 285
232 232 233 235 236 237 238 239 240 241 242 243 244 244 244 244 245 245 246 247 249 249 247 245 245 247 246 241 240 243 244 245 246 247 250 252 252 252 253 256 258 258 257 257 257 258 259 259 259 259 260 259 259 258 258 258 258 259 260 261 263 264 266 266 267 267 267 267 267 267 268 268 270 271 273 274 276 278 279 280 281 282 283 283 284 285
233 233 233 235 236 237 239 240 241 242 243 244 245 245 246 246 246 246 247 248 248 249 247 246 246 247 247 242 239 241 243 244 246 247 249 251 252 252 252 254 256 258 258 257 257 258 258 259 259 259 260 260 260 259 259 259 260 260 260 261 262 263 264 265 266 266 266 267 267 268 268 269 270 272 273 274 276 277 278 279 280 281 282 283 283 284
233 233 233 234 236 237 239 241 242 243 244 245 245 245 246 246 246 246 247 247 247 247 246 245 246 247 247 243 240 240 241 243 245 246 247 249 251 252 252 252 254 256 257 258 258 258 258 259 259 260 260 260 260 260 260 260 261 261 261 261 261 262 262 263 265 266 266 267 268 269 269 270 271 272 273 274 275 276 277 278 279 280 281 282 283 284
233 233 233 233 234 236 237 238 240 241 243 244 245 245 246 247 247 246 246 247 248 248 247 246 246 248 247 245 242 241 240 242 244 246 247 248 250 251 252 253 254 255 256 257 258 258 258 258 259 260 260 261 261 261 261 261 261 262 262 262 262 262 262 262 263 264 266 267 268 269 270 270 271 271 272 273 273 274 275 276 277 278 280 281 282 283
234 235 234 234 235 235 236 237 238 239 240 242 244 244 245 245 246 246 246 246 247 248 248 247 246 248 247 245 244 243 241 241 243 245 247 248 249 251 252 253 254 255 256 256 257 258 258 258 259 260 260 260 261 261 261 261 261 262 262 262 262 262 263 263 263 263 264 265 266 267 268 269 270 271 271 271 272 273 274 275 276 277 278 280 281 282
233 234 234 234 234 235 236 236 237 238 239 241 243 244 244 244 245 246 246 246 246 247 248 247 246 247 247 246 245 245 244 242 242 244 246 247 248 249 251 253 254 255 256 257 257 258 258 259 259 260 260 261 261 261 261 261 261 261 261 262 262 262 263 263 263 263 264 264 265 266 267 267 268 269 269 270 271 271 272 273 274 276 277 278 280 281
232 233 233 233 233 234 235 235 236 237 238 239 241 243 244 245 246 247 248 248 247 248 248 248 247 247 247 246 245 245 245 243 243 243 245 247 248 249 250 252 254 256 256 257 258 258 259 259 260 260 261 261 261 261 261 261 260 260 261 261 261 262 262 263 263 263 264 264 264 265 265 266 267 267 268 269 270 271 272 273 274 275 276 277 279 280
233 233 233 233 233 233 234 235 236 237 238 239 240 241 243 245 246 247 248 249 249 249 249 249 249 248 247 246 245 244 244 245 244 244 244 246 248 249 250 251 253 255 257 257 258 259 259 260 260 260 260 260 260 260 261 261 261 260 260 261 261 262 262 263 263 263 264 264 264 264 265 266 266 267 268 269 270 271 272 273 274 275 276 277 278 280
233 234 234 234 234 234 234 236 237 237 238 239 240 241 242 244 245 246 248 249 250 250 251 250 250 250 249 248 246 245 245 245 246 245 245 246 247 249 250 251 252 254 256 258 258 259 259 260 260 260 261 261 260 260 260 260 260 260 260 261 261 262 262 263 263 263 263 264 264 264 265 265 266 267 268 269 270 271 272 273 274 275 276 277 279 279
234 234 235 235 235 235 235 236 236 237 237 238 239 239 240 241 243 245 246 248 250 251 251 252 251 251 250 249 248 246 245 246 246 246 246 247 247 248 250 251 252 254 255 257 259 259 260 260 261 261 261 261 261 261 260 260 260 260 261 261 261 261 262 262 263 263 264 264 264 264 265 265 266 267 268 269 270 271 272 273 274 275 276 277 278 279
234 235 235 235 235 235 235 236 236 236 237 237 238 239 240 241 242 244 246 248 250 251 251 252 252 252 252 251 249 248 247 247 246 246 247 248 248 249 249 250 252 253 255 257 258 259 260 261 261 261 261 261 261 262 261 261 260 260 260 261 261 262 262 262 263 263 264 264 264 265 265 265 266 267 267 268 269 270 271 272 273 274 275 276 277 279
233 234 235 235 236 236 236 236 236 237 237 238 239 240 241 241 242 243 245 246 248 249 250 252 253 253 253 252 251 250 250 249 248 247 247 248 248 249 249 250 252 253 254 256 257 258 259 260 261 261 261 261 261 261 262 262 262 261 261 261 261 261 262 262 263 263 264 264 264 265 265 266 266 267 267 268 269 270 271 272 273 274 275 276 277 278
233 234 235 235 236 236 236 236 237 238 238 239 240 240 241 241 241 242 243 244 245 247 249 251 252 252 252 252 252 253 252 251 250 249 247 247 247 249 250 250 251 252 253 255 256 257 258 258 260 261 261 261 261 261 262 262 262 262 262 262 262 262 262 263 263 263 264 264 264 265 265 266 266 266 267 268 269 270 271 272 273 274 275 276 277 278
233 234 234 235 236 237 238 238 238 239 239 239 239 240 240 241 241 241 242 243 244 245 247 248 250 250 250 251 253 254 254 253 252 251 249 248 248 248 249 250 251 251 252 253 254 256 257 257 258 259 260 261 261 262 262 262 263 263 263 263 263 264 264 264 264 264 264 264 265 265 265 266 266 266 267 268 268 269 270 271 272 273 274 275 276 277
233 234 234 235 236 238 238 239 239 239 239 239 239 239 240 240 241 241 242 242 243 244 245 247 248 249 249 250 252 253 254 255 254 253 252 250 249 249 249 249 250 250 251 252 252 254 256 257 258 258 259 260 261 262 263 263 264 264 264 264 264 264 264 265 265 265 265 265 265 266 266 266 267 267 267 268 268 269 270 271 272 273 274 275 276 277
234 235 235 235 236 237 239 239 239 240 240 240 240 239 240 240 241 242 242 242 243 244 244 245 247 247 248 248 250 251 253 254 256 256 255 254 252 250 249 249 249 249 250 251 251 252 254 256 258 259 259 260 261 262 262 263 264 265 265 265 265 264 264 265 265 265 266 266 266 266 267 267 268 268 269 269 269 270 271 271 272 273 274 275 276 277
236 236 236 236 237 238 239 240 240 241 241 241 241 241 241 241 241 242 242 243 244 244 245 245 246 247 247 247 248 249 251 253 254 256 257 257 257 255 253 251 250 250 250 250 251 252 253 255 257 259 260 261 261 262 262 263 264 264 265 265 265 265 265 265 265 266 266 266 266 267 267 268 268 269 269 270 270 271 272 272 273 274 274 275 276 276
236 237 236 236 237 238 239 240 240 241 241 242 242 242 242 242 242 242 243 243 244 244 245 246 246 246 247 247 247 247 249 250 252 254 255 257 259 259 258 256 254 252 251 250 250 251 253 254 256 257 259 260 261 261 262 262 263 264 264 265 265 265 266 266 266 266 266 266 267 267 267 268 269 269 270 270 271 271 272 273 273 274 274 275 275 276
236 236 236 236 236 237 238 239 240 240 241 241 242 242 243 243 243 243 244 244 244 245 246 246 246 247 247 247 247 247 248 249 251 253 255 256 257 258 259 260 259 258 256 254 253 252 253 253 254 255 256 258 259 261 261 262 263 263 264 264 265 265 265 266 266 266 266 267 267 267 267 268 268 269 270 271 271 272 272 273 274 274 275 275 276 276
237 237 237 237 237 237 238 239 240 240 241 241 242 242 243 244 245 245 245 245 246 246 246 247 247 247 247 247 247 246 247 249 251 253 254 254 254 255 257 258 259 260 260 261 260 258 257 255 254 254 255 256 258 259 260 261 262 263 263 264 265 265 265 265 265 266 266 266 266 267 267 268 268 269 269 270 271 271 272 273 274 274 275 275 276 277
237 238 238 238 239 239 239 240 241 242 242 242 243 243 244 245 246 246 247 247 247 247 247 247 248 248 248 248 248 247 247 248 249 250 251 252 252 253 254 256 258 259 261 262 262 263 262 261 260 258 256 256 256 257 258 260 261 262 263 263 264 265 265 266 266 266 266 266 267 267 267 267 268 268 269 270 270 271 271 272 273 274 274 275 276 276
237 238 239 239 240 240 241 241 242 242 242 243 244 245 246 246 247 248 248 248 249 249 249 249 249 249 249 248 248 248 247 247 247 247 248 250 251 252 253 254 256 257 259 260 260 261 262 263 264 263 262 260 258 257 257 258 259 260 261 262 263 264 265 265 266 266 267 267 268 268 268 268 268 269 269 270 270 271 271 272 272 273 273 274 275 275
239 240 241 241 242 242 243 243 243 244 244 245 245 246 246 247 248 248 248 249 249 250 250 250 249 249 249 249 249 248 247 246 246 246 246 247 249 251 252 252 254 255 256 257 258 259 261 262 263 264 265 265 264 262 261 260 259 260 260 261 262 263 264 265 265 266 267 267 268 268 268 268 269 269 269 269 270 270 271 271 271 271 272 272 273 274
242 243 244 244 244 245 245 246 247 247 247 247 247 247 247 247 247 248 248 248 248 249 249 249 250 250 250 250 250 249 248 247 246 246 246 247 248 250 251 251 252 253 254 255 256 257 259 260 261 262 263 264 265 265 265 265 264 264 264 263 263 263 264 265 265 266 266 267 267 268 268 268 269 269 269 269 270 270 271 271 271 271 272 272 272 273
243 244 245 246 246 247 247 248 248 248 248 248 249 250 249 249 248 248 248 247 248 248 249 250 250 250 250 250 250 250 249 248 247 247 247 247 248 249 250 251 251 252 253 254 255 255 256 258 259 260 261 262 263 264 265 266 267 267 267 267 267 267 267 268 268 269 269 269 268 268 268 268 268 268 268 268 269 269 270 270 271 271 272 272 273 273
244 245 246 247 247 247 248 248 248 249 249 249 250 251 251 250 250 249 249 248 248 249 250 250 250 250 250 250 251 251 251 250 249 248 248 248 248 249 249 250 251 252 252 253 254 254 255 256 257 258 260 261 262 263 264 265 266 267 268 268 269 269 270 270 271 272 272 273 273 272 272 271 271 271 271 270 270 270 270 271 271 272 272 273 273 274
244 245 246 247 247 248 249 249 250 250 250 251 251 252 251 251 251 251 251 250 249 249 250 250 250 250 251 251 252 252 252 252 252 251 250 250 250 249 249 250 251 251 252 252 253 254 254 255 256 257 258 259 261 262 263 264 264 265 266 267 268 268 269 269 270 271 272 273 274 274 275 275 275 275 275 275 275 274 274 274 275 275 275 276 276 277
244 246 246 248 249 249 251 251 252 252 253 254 254 254 253 253 253 253 254 253 252 251 251 250 251 251 251 252 252 253 253 253 253 253 252 252 251 251 250 250 250 251 251 252 253 253 254 255 256 256 257 258 259 260 262 262 263 263 264 265 266 267 268 268 268 269 269 270 271 272 273 274 275 276 276 277 277 277 277 277 277 278 278 278 279 279
244 246 247 248 249 251 252 253 254 255 255 256 257 256 255 255 255 257 258 257 256 254 252 251 252 252 252 253 253 253 253 254 254 254 253 253 253 252 251 251 251 251 251 252 253 253 254 255 255 256 257 257 258 259 260 261 262 262 263 264 265 266 266 267 268 268 268 268 268 269 270 271 272 273 274 275 276 276 277 278 278 278 278 279 279 279
245 246 248 249 250 252 253 255 256 257 258 259 260 259 258 258 258 259 259 259 258 257 255 254 254 254 254 254 254 254 254 254 254 254 254 254 254 254 253 253 252 252 252 253 253 253 254 254 255 256 256 257 258 259 260 260 261 262 262 263 263 264 265 266 267 267 268 268 268 268 269 269 270 270 271 272 273 273 274 275 276 277 277 277 278 278
246 247 249 250 252 254 255 257 258 259 259 260 260 260 260 261 262 262 262 262 261 260 259 257 256 255 255 254 254 254 254 254 254 254 255 255 255 255 255 254 254 253 253 253 254 254 254 254 255 255 256 257 258 258 259 260 261 261 262 263 263 263 264 265 266 266 267 267 268 268 269 269 269 270 270 271 271 272 272 273 274 275 275 276 277 277
248 250 251 253 254 255 256 258 259 260 259 260 262 264 265 266 266 265 263 263 261 260 258 257 257 256 256 255 255 254 254 255 255 255 255 255 255 256 256 256 256 255 255 255 255 255 255 255 255 256 256 257 257 258 258 259 259 260 261 262 263 264 264 264 265 265 266 266 267 267 268 268 269 270 270 271 271 271 272 272 273 274 274 275 276 276
250 251 252 252 254 255 257 259 260 261 263 265 266 267 267 267 266 263 261 260 260 259 259 258 257 257 256 256 255 255 255 255 255 256 256 256 257 257 257 257 257 257 257 257 257 257 257 256 256 257 257 258 258 258 258 259 259 260 260 261 262 263 264 264 264 265 265 266 266 266 267 267 268 268 269 270 270 271 271 272 272 273 274 274 275 275
250 251 252 253 255 257 259 261 262 263 265 266 266 266 266 266 264 262 260 259 259 259 259 259 258 257 257 257 257 256 256 256 256 257 257 258 258 258 258 258 258 258 257 258 258 258 258 258 258 258 258 259 259 259 259 259 259 259 260 260 261 261 262 263 264 264 264 265 265 265 266 266 266 267 268 268 269 269 270 271 271 272 273 273 274 275
250 252 253 255 257 259 260 262 263 263 264 266 266 266 265 265 263 261 259 258 258 258 259 259 259 259 258 258 258 258 258 258 257 257 258 258 259 259 259 259 259 259 259 259 259 259 259 259 259 259 259 259 260 260 260 260 260 260 260 260 260 261 261 261 262 263 263 264 264 264 264 265 265 265 266 267 267 268 268 269 270 270 271 272 273 274
251 253 255 257 259 260 262 262 263 264 265 265 266 265 264 263 262 261 259 257 257 257 258 259 260 260 260 259 259 259 260 259 259 258 258 258 258 259 260 260 261 261 260 260 260 260 260 260 260 260 260 260 260 260 261 260 260 260 260 260 260 261 261 261 261 262 262 263 263 263 264 264 264 264 265 265 266 266 267 267 268 269 270 270 271 272
252 254 257 258 259 261 262 263 263 263 263 264 265 265 265 264 263 262 260 259 258 258 257 258 258 260 260 260 260 260 260 260 260 259 259 259 259 259 260 261 262 262 262 262 261 261 261 261 261 261 261 261 261 261 261 261 261 261 261 261 261 261 261 261 261 262 262 262 263 263 263 264 264 264 264 265 265 266 266 267 267 268 268 269 270 271
254 256 258 259 260 261 262 262 263 263 263 264 266 267 267 265 264 262 261 260 259 259 258 258 258 258 259 259 260 260 260 260 260 260 260 260 260 260 261 261 262 263 263 263 263 263 263 263 262 262 262 262 262 262 262 262 262 262 261 261 261 261 261 262 262 262 262 262 263 263 264 264 264 264 265 265 265 266 266 267 267 268 268 269 270 270
255 256 257 259 261 261 262 263 264 265 266 266 266 266 266 265 264 263 262 260 259 258 258 258 258 258 259 259 259 259 259 260 260 261 261 261 261 262 262 262 262 263 264 264 264 264 264 264 264 264 264 264 264 264 264 263 263 263 263 262 262 262 262 262 262 262 262 262 263 263 263 264 264 265 265 265 266 266 266 267 268 268 268 269 269 270
Height
10696 10698 10702 10713 10724 10732 10737 10741 10746 10747 10747 10752 10756 10757 10761 10766 10773 10776 10775 10781 10789 10792 10798 10804 10807 10811 10813 10810 10811 10819 10825 10830 10832 10833 10835 10833 10832 10835 10837 10837 10839 10840 10842 10846 10848 10849 10851 10853 10853 10853 10854 10854 10853 10854 10855 10855 10855 10856 10857 10858 10858 10860 10861 10859 10859 10860 10860 10861 10862 10862 10861 10861 10860 10860 10860 10860 10861 10861 10861 10861 10861 10860 10859 10857 10856 10855
10687 10688 10696 10707 10713 10717 10723 10728 10733 10736 10739 10746 10748 10750 10754 10759 10766 10769 10769 10773 10782 10789 10792 10795 10801 10807 10810 10809 10807 10813 10820 10824 10826 10827 10828 10828 10827 10829 10833 10833 10833 10834 10837 10839 10841 10843 10846 10848 10849 10850 10850 10850 10850 10851 10852 10851 10852 10854 10854 10854 10854 10855 10856 10856 10855 10856 10856 10857 10858 10858 10857 10856 10856 10855 10855 10856 10857 10857 10857 10857 10857 10856 10854 10853 10851 10851
10678 10683 10691 10696 10701 10708 10715 10722 10727 10730 10734 10739 10743 10742 10744 10754 10760 10760 10763 10769 10777 10784 10785 10786 10793 10801 10807 10808 10805 10806 10813 10817 10820 10822 10821 10821 10823 10825 10828 10828 10828 10830 10830 10830 10833 10836 10839 10843 10845 10846 10846 10846 10847 10847 10847 10848 10849 10850 10850 10850 10850 10851 10852 10852 10852 10852 10853 10853 10853 10853 10852 10852 10852 10851 10851 10852 10852 10853 10853 10853 10852 10852 10850 10849 10847 10846
10673 10679 10683 10686 10693 10703 10711 10717 10721 10723 10727 10733 10736 10732 10735 10746 10750 10754 10759 10764 10769 10775 10778 10781 10787 10795 10802 10807 10804 10799 10804 10810 10813 10816 10815 10816 10820 10821 10821 10822 10823 10824 10823 10822 10825 10829 10832 10836 10839 10841 10841 10842 10842 10842 10842 10843 10845 10845 10846 10846 10846 10847 10847 10847 10847 10848 10848 10848 10848 10848 10848 10848 10847 10847 10847 10847 10848 10849 10849 10849 10848 10848 10846 10845 10843 10842
10665 10671 10674 10677 10685 10696 10704 10709 10710 10712 10717 10723 10726 10723 10728 10738 10744 10749 10748 10750 10760 10767 10772 10775 10779 10789 10796 10800 10802 10795 10795 10804 10808 10810 10811 10811 10814 10816 10816 10816 10815 10816 10816 10816 10818 10821 10825 10830 10833 10835 10835 10837 10837 10837 10838 10839 10840 10841 10841 10842 10842 10842 10842 10842 10842 10843 10844 10844 10843 10844 10844 10844 10843 10842 10842 10842 10844 10846 10845 10844 10843 10843 10842 10841 10840 10838
10654 10661 10665 10669 10675 10685 10693 10697 10700 10703 10707 10712 10715 10715 10721 10729 10734 10736 10733 10740 10755 10762 10765 10766 10771 10785 10789 10791 10799 10793 10790 10798 10803 10806 10807 10805 10807 10810 10811 10808 10806 10807 10809 10810 10812 10813 10817 10822 10826 10828 10829 10830 10831 10831 10833 10835 10835 10835 10836 10836 10837 10837 10836 10836 10836 10838 10839 10839 10838 10839 10840 10839 10838 10837 10837 10837 10839 10841 10840 10839 10838 10838 10837 10837 10835 10834
10644 10650 10657 10660 10664 10673 10680 10685 10690 10693 10696 10700 10705 10708 10712 10718 10724 10725 10725 10733 10747 10754 10755 10757 10765 10779 10783 10784 10793 10792 10787 10791 10797 10801 10802 10800 10800 10801 10801 10801 10799 10799 10801 10803 10804 10807 10810 10814 10817 10820 10821 10823 10825 10826 10827 10828 10829 10830 10830 10831 10831 10831 10831 10830 10831 10832 10834 10835 10834 10834 10834 10834 10833 10832 10831 10832 10833 10834 10835 10834 10833 10832 10832 10831 10830 10829
10639 10644 10649 10654 10656 10661 10668 10676 10681 10684 10687 10689 10695 10701 10703 10710 10716 10717 10716 10723 10738 10745 10745 10751 10760 10769 10777 10782 10784 10786 10785 10787 10791 10795 10796 10796 10793 10791 10792 10794 10792 10792 10793 10795 10797 10801 10802 10804 10808 10812 10814 10817 10819 10819 10820 10821 10822 10824 10825 10825 10824 10824 10824 10824 10826 10827 10828 10830 10831 10830 10829 10828 10828 10827 10826 10827 10827 10828 10829 10828 10828 10827 10826 10826 10825 10824
10640 10638 10642 10648 10647 10649 10660 10668 10672 10676 10676 10678 10685 10692 10696 10701 10707 10708 10707 10714 10728 10733 10735 10746 10753 10757 10774 10781 10776 10777 10782 10784 10785 10785 10789 10791 10786 10784 10784 10785 10785 10784 10785 10787 10790 10793 10793 10794 10800 10804 10807 10810 10813 10812 10813 10814 10815 10817 10817 10817 10816 10816 10817 10820 10822 10823 10823 10824 10826 10826 10824 10822 10822 10822 10821 10822 10821 10822 10822 10822 10822 10821 10820 10820 10819 10819
10626 10627 10631 10635 10634 10640 10651 10655 10659 10663 10664 10666 10673 10681 10687 10691 10697 10698 10697 10703 10712 10717 10727 10743 10746 10747 10766 10776 10768 10769 10777 10780 10779 10776 10780 10785 10782 10779 10776 10773 10775 10775 10777 10780 10782 10784 10783 10784 10789 10796 10799 10802 10804 10805 10806 10806 10808 10810 10810 10809 10809 10810 10812 10815 10817 10818 10819 10819 10821 10821 10820 10818 10816 10816 10816 10816 10815 10815 10816 10816 10816 10815 10815 10814 10813 10812
10607 10615 10615 10616 10623 10631 10637 10641 10646 10650 10652 10656 10661 10669 10676 10680 10686 10687 10688 10693 10693 10702 10725 10741 10740 10736 10751 10768 10764 10763 10773 10774 10773 10771 10770 10775 10777 10773 10767 10761 10762 10766 10769 10771 10773 10774 10776 10777 10779 10784 10790 10793 10796 10798 10798 10800 10801 10802 10803 10802 10803 10804 10806 10809 10811 10813 10814 10813 10814 10814 10814 10813 10811 10811 10811 10810 10808 10809 10810 10810 10809 10810 10809 10808 10807 10806
10595 10604 10604 10610 10618 10621 10624 10630 10636 10640 10645 10649 10653 10661 10666 10669 10676 10678 10681 10683 10678 10694 10723 10735 10733 10723 10733 10761 10763 10759 10768 10767 10765 10766 10761 10764 10769 10766 10759 10752 10750 10756 10760 10761 10763 10764 10767 10770 10771 10773 10778 10784 10788 10791 10791 10793 10794 10795 10796 10796 10798 10798 10800 10803 10804 10806 10806 10806 10807 10806 10807 10807 10806 10806 10806 10804 10803 10802 10803 10803 10803 10803 10803 10802 10800 10799
10589 10599 10602 10607 10610 10612 10616 10622 10627 10633 10639 10643 10646 10653 10656 10660 10669 10672 10676 10677 10673 10691 10714 10722 10724 10711 10718 10752 10758 10753 10761 10757 10757 10760 10754 10754 10757 10755 10752 10746 10742 10744 10749 10752 10755 10757 10758 10761 10763 10765 10769 10775 10780 10783 10784 10785 10786 10788 10789 10791 10793 10793 10794 10796 10797 10797 10798 10798 10798 10798 10800 10800 10799 10800 10800 10800 10799 10797 10796 10796 10795 10796 10795 10795 10793 10792
10583 10592 10596 10598 10601 10607 10612 10616 10624 10632 10636 10639 10642 10645 10647 10652 10660 10662 10667 10669 10667 10679 10695 10707 10712 10699 10707 10741 10749 10748 10753 10749 10750 10753 10747 10746 10744 10743 10744 10740 10735 10734 10736 10743 10747 10749 10750 10751 10755 10758 10761 10766 10771 10774 10776 10777 10778 10781 10783 10785 10786 10786 10787 10788 10788 10789 10790 10790 10790 10791 10793 10794 10793 10794 10794 10794 10793 10791 10790 10790 10789 10788 10787 10786 10785 10784
10567 10576 10586 10593 10599 10606 10612 10616 10623 10627 10628 10628 10631 10631 10631 10638 10645 10648 10654 10655 10654 10663 10677 10693 10699 10688 10700 10730 10739 10742 10745 10742 10743 10742 10739 10738 10732 10731 10734 10732 10729 10725 10727 10734 10738 10740 10741 10744 10747 10749 10753 10758 10762 10766 10769 10770 10772 10773 10775 10777 10778 10778 10779 10780 10780 10781 10783 10783 10784 10785 10786 10787 10787 10788 10788 10787 10786 10784 10784 10783 10783 10782 10780 10778 10776 10775
10557 10563 10579 10590 10592 10598 10604 10607 10609 10612 10612 10612 10615 10615 10618 10627 10632 10633 10640 10644 10646 10651 10662 10681 10687 10680 10695 10721 10728 10732 10735 10734 10734 10732 10730 10728 10723 10722 10724 10724 10721 10718 10719 10724 10726 10729 10733 10737 10739 10740 10745 10750 10753 10757 10761 10764 10765 10765 10766 10767 10769 10770 10770 10772 10773 10774 10776 10777 10778 10778 10778 10779 10780 10780 10780 10779 10778 10776 10776 10776 10775 10774 10772 10771 10769 10767
10552 10558 10575 10584 10583 10589 10593 10593 10595 10597 10597 10596 10596 10598 10608 10615 10613 10614 10624 10632 10635 10636 10646 10667 10676 10674 10688 10710 10717 10719 10725 10728 10727 10723 10719 10718 10717 10717 10716 10714 10712 10710 10711 10713 10715 10719 10724 10728 10731 10732 10737 10741 10744 10748 10752 10755 10757 10757 10758 10759 10760 10761 10761 10763 10766 10767 10769 10770 10770 10770 10770 10771 10771 10771 10770 10770 10769 10768 10768 10768 10767 10765 10764 10763 10762 10760
10540 10546 10560 10569 10573 10579 10581 10579 10582 10584 10584 10584 10584 10589 10598 10598 10596 10602 10610 10618 10623 10625 10636 10652 10664 10669 10679 10698 10709 10709 10713 10719 10718 10713 10710 10708 10709 10709 10706 10704 10703 10701 10700 10702 10705 10710 10715 10719 10722 10725 10729 10732 10735 10739 10742 10745 10747 10748 10750 10750 10750 10751 10752 10754 10756 10758 10760 10761 10762 10762 10761 10762 10762 10761 10761 10760 10759 10759 10759 10759 10757 10757 10756 10755 10754 10754
10528 10530 10540 10552 10557 10561 10561 10559 10565 10570 10572 10574 10578 10584 10585 10583 10591 10598 10597 10605 10615 10620 10628 10639 10649 10658 10670 10688 10700 10698 10699 10704 10703 10701 10700 10698 10697 10698 10698 10698 10695 10691 10689 10692 10696 10701 10706 10710 10713 10716 10719 10721 10724 10729 10732 10735 10737 10739 10740 10740 10741 10742 10744 10745 10746 10748 10750 10751 10752 10752 10752 10752 10751 10751 10750 10750 10749 10749 10749 10749 10748 10748 10748 10747 10747 10747
10517 10518 10527 10539 10544 10545 10545 10546 10554 10562 10565 10566 10571 10577 10576 10577 10588 10591 10587 10593 10602 10608 10618 10627 10633 10644 10663 10681 10686 10684 10687 10689 10688 10690 10692 10689 10687 10688 10692 10693 10688 10682 10678 10681 10688 10693 10697 10700 10703 10706 10707 10709 10713 10718 10722 10724 10726 10729 10730 10731 10732 10733 10735 10736 10737 10739 10740 10741 10743 10742 10742 10741 10741 10741 10740 10739 10739 10738 10738 10738 10738 10739 10739 10739 10739 10738
10502 10506 10515 10524 10527 10530 10535 10543 10553 10558 10557 10557 10562 10567 10572 10576 10580 10579 10577 10579 10584 10593 10604 10613 10619 10634 10655 10667 10668 10672 10678 10676 10675 10681 10682 10678 10678 10682 10684 10683 10679 10674 10670 10671 10677 10683 10687 10690 10693 10696 10696 10697 10701 10706 10710 10713 10715 10718 10719 10721 10723 10724 10725 10727 10727 10729 10730 10731 10732 10733 10732 10732 10731 10730 10730 10729 10729 10729 10728 10728 10728 10729 10730 10730 10729 10727
10491 10497 10503 10508 10512 10521 10531 10539 10541 10538 10537 10542 10547 10552 10560 10565 10564 10564 10565 10569 10575 10581 10590 10597 10604 10623 10643 10649 10651 10660 10665 10664 10665 10668 10667 10666 10670 10675 10675 10671 10668 10668 10666 10664 10667 10672 10676 10681 10684 10684 10683 10685 10689 10693 10697 10701 10704 10707 10709 10711 10713 10715 10716 10717 10718 10719 10720 10721 10722 10722 10722 10722 10721 10720 10720 10720 10719 10718 10718 10718 10719 10720 10721 10721 10719 10717
10481 10484 10488 10493 10500 10511 10519 10521 10517 10517 10524 10530 10534 10539 10547 10553 10558 10562 10564 10568 10570 10568 10575 10580 10586 10613 10633 10630 10634 10647 10649 10650 10653 10653 10654 10658 10662 10664 10662 10660 10661 10663 10662 10658 10659 10663 10665 10668 10671 10671 10671 10673 10676 10679 10682 10688 10692 10695 10698 10700 10702 10704 10705 10707 10708 10709 10710 10711 10711 10712 10712 10711 10711 10710 10710 10710 10709 10709 10708 10709 10709 10710 10711 10710 10709 10708
10464 10467 10473 10479 10486 10494 10500 10503 10503 10506 10512 10518 10526 10536 10541 10547 10555 10558 10555 10557 10557 10554 10563 10565 10571 10605 10622 10608 10614 10632 10633 10634 10639 10641 10646 10650 10649 10648 10648 10650 10653 10656 10656 10652 10652 10654 10654 10654 10656 10656 10658 10661 10665 10667 10668 10673 10678 10682 10687 10689 10691 10693 10694 10696 10698 10699 10700 10700 10700 10701 10701 10701 10700 10700 10700 10700 10699 10699 10698 10699 10699 10699 10700 10699 10698 10697
10451 10454 10460 10466 10469 10474 10480 10485 10489 10495 10504 10514 10524 10529 10531 10534 10540 10541 10540 10544 10545 10547 10557 10555 10559 10591 10602 10588 10597 10615 10615 10617 10623 10627 10635 10638 10636 10634 10635 10639 10642 10645 10648 10646 10642 10641 10641 10643 10643 10642 10643 10647 10651 10654 10656 10660 10664 10668 10673 10677 10680 10682 10684 10685 10687 10688 10688 10688 10689 10689 10689 10689 10689 10689 10689 10689 10689 10689 10688 10688 10688 10688 10688 10688 10687 10687
10436 10440 10448 10454 10457 10461 10468 10476 10484 10494 10500 10506 10510 10511 10515 10520 10523 10526 10529 10531 10535 10542 10548 10546 10549 10572 10582 10577 10587 10597 10594 10596 10603 10610 10619 10624 10625 10625 10624 10626 10630 10632 10636 10636 10632 10628 10625 10627 10630 10630 10631 10634 10637 10641 10643 10647 10651 10656 10661 10665 10667 10670 10672 10673 10675 10676 10676 10677 10677 10677 10676 10677 10677 10677 10678 10679 10679 10679 10678 10678 10677 10677 10676 10676 10676 10675
10423 10429 10438 10445 10449 10453 10459 10466 10472 10476 10477 10481 10488 10494 10500 10504 10507 10511 10512 10517 10527 10533 10533 10536 10542 10554 10565 10573 10581 10582 10576 10575 10582 10591 10601 10608 10613 10615 10612 10612 10615 10619 10621 10621 10621 10617 10612 10611 10615 10619 10623 10624 10627 10630 10631 10634 10639 10643 10648 10652 10655 10658 10660 10660 10661 10662 10663 10664 10665 10665 10664 10665 10664 10665 10666 10667 10668 10668 10667 10667 10667 10666 10665 10665 10665 10664
10413 10420 10429 10436 10440 10443 10446 10449 10451 10454 10459 10466 10475 10482 10486 10490 10493 10495 10500 10510 10518 10516 10518 10530 10534 10537 10554 10569 10572 10569 10563 10560 10566 10573 10580 10590 10597 10600 10599 10598 10599 10602 10605 10606 10606 10606 10605 10603 10603 10608 10614 10616 10617 10619 10620 10624 10627 10629 10633 10637 10640 10643 10646 10646 10647 10649 10650 10651 10652 10652 10653 10653 10652 10652 10653 10654 10655 10655 10655 10655 10655 10655 10654 10654 10653 10652
10404 10412 10421 10426 10429 10432 10432 10431 10435 10445 10452 10456 10462 10469 10474 10478 10480 10482 10490 10501 10504 10501 10509 10523 10522 10525 10545 10559 10558 10556 10555 10553 10555 10558 10563 10570 10574 10577 10581 10584 10584 10586 10590 10591 10590 10592 10598 10602 10601 10600 10602 10604 10605 10606 10609 10613 10615 10616 10618 10621 10624 10627 10629 10632 10635 10636 10637 10638 10639 10640 10640 10640 10639 10639 10639 10641 10642 10642 10643 10643 10643 10643 10642 10641 10640 10639
10395 10402 10409 10412 10415 10419 10418 10417 10425 10436 10439 10440 10446 10454 10458 10462 10465 10469 10478 10488 10492 10494 10502 10510 10511 10518 10534 10542 10544 10548 10547 10543 10544 10548 10555 10559 10555 10553 10558 10562 10565 10569 10572 10574 10575 10581 10589 10595 10596 10593 10590 10589 10590 10593 10597 10601 10603 10604 10604 10606 10610 10612 10614 10617 10620 10621 10622 10624 10625 10626 10627 10627 10626 10626 10626 10626 10628 10629 10630 10630 10630 10629 10629 10628 10627 10626
10385 10388 10392 10396 10398 10401 10404 10406 10411 10417 10420 10423 10429 10436 10441 10446 10452 10460 10471 10480 10485 10490 10495 10497 10497 10508 10521 10526 10530 10535 10533 10534 10540 10546 10551 10550 10542 10537 10537 10538 10539 10543 10547 10552 10563 10575 10579 10580 10583 10583 10580 10579 10579 10582 10585 10588 10589 10590 10590 10591 10595 10599 10601 10602 10604 10605 10607 10608 10609 10610 10612 10613 10613 10613 10613 10613 10614 10615 10616 10615 10615 10615 10614 10614 10613 10612
10375 10376 10380 10383 10384 10389 10395 10396 10396 10403 10408 10409 10414 10424 10432 10439 10446 10456 10465 10470 10474 10479 10483 10481 10482 10498 10511 10509 10507 10517 10526 10533 10542 10545 10540 10533 10526 10520 10517 10519 10523 10525 10527 10536 10550 10558 10558 10559 10565 10570 10571 10572 10572 10571 10572 10573 10575 10576 10577 10577 10578 10581 10585 10586 10588 10589 10591 10592 10593 10595 10597 10598 10600 10600 10600 10599 10600 10601 10602 10602 10601 10600 10599 10599 10599 10598
10361 10363 10368 10372 10374 10382 10388 10387 10390 10394 10391 10393 10407 10422 10431 10437 10442 10448 10453 10458 10462 10465 10468 10470 10477 10489 10494 10486 10486 10505 10523 10529 10530 10530 10522 10510 10503 10500 10500 10508 10517 10518 10519 10528 10535 10531 10528 10534 10543 10550 10556 10561 10562 10561 10560 10560 10561 10563 10564 10564 10564 10565 10567 10568 10570 10572 10574 10576 10577 10580 10582 10583 10586 10587 10587 10586 10587 10588 10590 10589 10588 10587 10585 10586 10585 10585
10350 10352 10356 10361 10366 10372 10377 10377 10377 10373 10374 10392 10414 10423 10426 10432 10436 10438 10443 10449 10452 10453 10453 10458 10465 10470 10470 10469 10475 10489 10503 10508 10507 10506 10500 10489 10482 10484 10491 10501 10509 10510 10509 10513 10516 10513 10512 10519 10523 10524 10530 10536 10540 10544 10547 10549 10551 10552 10551 10550 10549 10549 10550 10551 10553 10555 10557 10559 10561 10563 10565 10568 10571 10573 10572 10572 10572 10574 10576 10576 10575 10573 10572 10573 10573 10573
10345 10346 10350 10355 10360 10365 10367 10367 10363 10365 10380 10403 10414 10413 10418 10426 10428 10427 10429 10435 10438 10437 10435 10436 10441 10446 10448 10451 10458 10465 10475 10481 10480 10478 10478 10475 10470 10471 10480 10491 10496 10498 10496 10496 10499 10501 10502 10506 10508 10508 10510 10512 10514 10520 10526 10532 10537 10540 10540 10538 10536 10535 10534 10535 10539 10540 10542 10544 10544 10545 10547 10550 10554 10556 10557 10557 10556 10558 10559 10559 10559 10559 10558 10559 10560 10560
10339 10340 10343 10348 10352 10355 10358 10358 10359 10367 10385 10397 10399 10403 10410 10414 10412 10409 10409 10416 10419 10416 10414 10416 10421 10429 10431 10433 10438 10443 10447 10451 10453 10456 10463 10466 10463 10461 10467 10477 10483 10483 10482 10482 10485 10488 10489 10491 10493 10496 10497 10498 10498 10500 10504 10511 10517 10521 10523 10522 10521 10522 10521 10521 10524 10525 10527 10529 10529 10529 10530 10532 10535 10538 10540 10541 10541 10541 10541 10541 10541 10541 10541 10543 10545 10544
10330 10331 10334 10338 10343 10346 10348 10351 10353 10360 10375 10386 10390 10395 10396 10394 10393 10390 10390 10399 10404 10401 10403 10407 10409 10411 10413 10413 10414 10416 10418 10421 10430 10445 10453 10451 10452 10454 10455 10460 10467 10470 10469 10468 10469 10471 10474 10477 10479 10481 10483 10484 10486 10488 10490 10494 10498 10501 10502 10501 10501 10503 10505 10506 10507 10507 10508 10509 10510 10511 10512 10513 10516 10519 10521 10523 10525 10526 10525 10524 10524 10524 10523 10525 10527 10527
10319 10321 10324 10326 10331 10335 10335 10338 10342 10350 10367 10380 10380 10378 10377 10374 10374 10372 10372 10383 10394 10395 10393 10391 10389 10390 10391 10391 10392 10394 10395 10398 10412 10432 10439 10434 10438 10445 10444 10444 10450 10453 10453 10453 10454 10455 10458 10462 10465 10467 10468 10470 10472 10474 10477 10481 10483 10484 10483 10483 10483 10484 10488 10490 10491 10489 10489 10489 10488 10489 10490 10491 10494 10496 10498 10501 10504 10506 10508 10507 10507 10506 10506 10508 10509 10509
10308 10311 10313 10315 10321 10326 10326 10329 10335 10345 10361 10366 10361 10362 10363 10359 10358 10354 10352 10368 10385 10384 10375 10370 10369 10372 10374 10375 10377 10379 10381 10386 10399 10414 10420 10419 10424 10430 10430 10430 10433 10434 10436 10437 10438 10441 10443 10446 10450 10453 10454 10456 10457 10459 10463 10468 10470 10470 10468 10466 10466 10469 10473 10476 10478 10478 10477 10475 10473 10472 10471 10472 10473 10474 10475 10476 10479 10482 10486 10487 10487 10487 10487 10488 10490 10490
10299 10301 10303 10307 10313 10316 10318 10321 10327 10339 10350 10348 10345 10351 10349 10343 10343 10339 10340 10358 10370 10363 10356 10354 10352 10354 10358 10361 10365 10367 10368 10374 10384 10391 10395 10399 10404 10408 10412 10415 10415 10415 10417 10419 10422 10427 10430 10431 10435 10438 10439 10440 10441 10444 10448 10452 10456 10456 10454 10452 10451 10453 10457 10460 10463 10466 10466 10465 10462 10460 10459 10458 10458 10457 10457 10457 10457 10459 10461 10464 10466 10467 10467 10468 10469 10470
10289 10291 10294 10300 10303 10305 10308 10311 10317 10330 10338 10332 10330 10335 10331 10328 10333 10332 10334 10343 10342 10336 10341 10342 10337 10341 10347 10348 10350 10353 10354 10357 10363 10368 10371 10376 10380 10383 10389 10395 10397 10399 10401 10402 10407 10414 10417 10418 10420 10421 10422 10423 10426 10429 10432 10436 10440 10441 10440 10439 10438 10439 10442 10444 10447 10450 10451 10451 10450 10449 10449 10448 10447 10446 10445 10444 10444 10444 10443 10443 10444 10447 10449 10449 10450 10451
10282 10283 10286 10290 10293 10296 10299 10301 10307 10321 10326 10318 10315 10317 10314 10314 10320 10322 10322 10322 10319 10322 10330 10329 10327 10332 10335 10334 10336 10338 10339 10341 10345 10348 10351 10354 10358 10362 10367 10374 10380 10385 10388 10389 10391 10396 10402 10405 10406 10406 10407 10407 10409 10413 10417 10419 10422 10424 10424 10424 10426 10427 10428 10429 10430 10432 10433 10434 10434 10434 10434 10434 10433 10433 10433 10432 10433 10433 10432 10429 10427 10428 10429 10430 10431 10433
10273 10273 10277 10284 10287 10288 10288 10291 10302 10314 10314 10303 10297 10298 10298 10301 10308 10311 10311 10310 10311 10314 10315 10314 10316 10319 10319 10319 10321 10321 10322 10325 10327 10330 10333 10335 10338 10343 10348 10354 10361 10367 10371 10374 10375 10379 10385 10390 10392 10392 10392 10391 10392 10396 10399 10403 10406 10406 10405 10406 10409 10412 10414 10415 10415 10415 10416 10417 10418 10417 10417 10416 10416 10416 10416 10417 10418 10419 10419 10417 10415 10414 10413 10412 10413 10413
10265 10269 10274 10278 10277 10274 10276 10285 10297 10301 10294 10286 10285 10288 10292 10296 10299 10301 10299 10298 10298 10299 10299 10300 10302 10301 10302 10304 10305 10305 10308 10310 10311 10313 10316 10317 10320 10324 10329 10335 10341 10346 10353 10357 10359 10362 10368 10373 10377 10377 10375 10374 10375 10378 10381 10387 10391 10392 10390 10389 10389 10392 10396 10398 10398 10398 10399 10400 10401 10401 10401 10400 10399 10397 10397 10397 10398 10400 10401 10400 10399 10399 10398 10397 10397 10396
10262 10265 10264 10263 10263 10263 10269 10281 10288 10284 10279 10279 10281 10281 10281 10282 10283 10284 10284 10283 10283 10284 10285 10287 10287 10288 10289 10290 10290 10292 10295 10295 10297 10299 10300 10302 10305 10307 10311 10317 10322 10327 10334 10338 10342 10345 10350 10355 10360 10361 10359 10357 10357 10359 10364 10369 10374 10377 10376 10374 10373 10375 10377 10378 10378 10379 10380 10381 10382 10383 10384 10383 10382 10381 10380 10380 10380 10381 10382 10381 10381 10381 10380 10380 10380 10380
10253 10252 10249 10251 10254 10258 10265 10275 10278 10274 10270 10268 10266 10266 10268 10270 10271 10271 10272 10272 10272 10272 10272 10273 10275 10276 10277 10277 10278 10280 10282 10283 10286 10286 10287 10289 10290 10290 10293 10298 10302 10309 10315 10320 10323 10327 10331 10335 10339 10342 10343 10341 10338 10340 10345 10350 10354 10358 10358 10358 10358 10359 10360 10360 10360 10359 10360 10361 10363 10364 10365 10365 10365 10364 10363 10363 10363 10364 10364 10363 10363 10363 10362 10361 10361 10361
10242 10241 10240 10244 10247 10251 10259 10266 10265 10262 10259 10254 10251 10254 10258 10259 10259 10259 10260 10260 10261 10261 10261 10262 10263 10264 10265 10267 10268 10268 10269 10271 10273 10273 10274 10275 10274 10274 10276 10279 10283 10290 10296 10301 10305 10309 10313 10317 10319 10321 10324 10323 10320 10321 10324 10329 10334 10337 10338 10340 10341 10341 10342 10343 10342 10341 10340 10340 10342 10343 10344 10346 10347 10346 10345 10345 10345 10346 10347 10346 10346 10346 10346 10344 10343 10344
10233 10230 10232 10238 10239 10241 10250 10254 10250 10249 10248 10243 10240 10242 10244 10246 10247 10247 10248 10249 10250 10251 10252 10252 10251 10252 10253 10255 10256 10256 10256 10255 10256 10258 10260 10260 10260 10261 10261 10263 10267 10272 10277 10282 10287 10290 10294 10297 10299 10302 10304 10303 10302 10301 10304 10309 10313 10315 10318 10321 10322 10322 10323 10324 10324 10324 10323 10321 10321 10322 10324 10325 10327 10327 10327 10326 10327 10328 10329 10329 10329 10330 10330 10328 10327 10328
10224 10223 10227 10230 10229 10232 10240 10241 10236 10235 10235 10231 10228 10230 10233 10236 10237 10236 10236 10237 10239 10240 10242 10242 10240 10240 10241 10241 10242 10243 10242 10240 10239 10241 10244 10246 10247 10248 10248 10250 10252 10255 10259 10264 10268 10272 10275 10278 10280 10282 10284 10283 10283 10283 10284 10287 10291 10294 10298 10301 10303 10305 10305 10304 10305 10306 10305 10303 10301 10301 10302 10304 10306 10307 10308 10308 10309 10309 10310 10311 10312 10314 10315 10313 10312 10313
10217 10218 10219 10217 10217 10223 10228 10226 10221 10221 10223 10222 10222 10222 10222 10223 10224 10224 10225 10226 10227 10228 10229 10229 10229 10228 10228 10228 10228 10227 10227 10227 10226 10227 10229 10232 10234 10234 10236 10238 10239 10240 10243 10246 10250 10254 10257 10258 10260 10263 10264 10263 10263 10264 10266 10268 10270 10273 10277 10281 10285 10287 10286 10285 10286 10286 10285 10285 10284 10283 10283 10284 10285 10286 10288 10290 10291 10291 10291 10292 10293 10295 10297 10297 10295 10295
10208 10209 10206 10205 10207 10212 10215 10213 10210 10211 10213 10213 10213 10212 10210 10211 10212 10212 10213 10213 10214 10215 10215 10215 10216 10215 10214 10214 10214 10213 10214 10214 10213 10214 10216 10217 10218 10221 10223 10225 10226 10228 10230 10231 10234 10237 10238 10240 10242 10244 10245 10245 10245 10246 10248 10250 10250 10252 10255 10260 10265 10267 10267 10266 10267 10266 10265 10265 10265 10265 10265 10265 10265 10266 10267 10269 10271 10272 10273 10274 10274 10275 10277 10279 10280 10279